Location: Newark
(45.4422°N, 16.2769°E)
Time: 12:44:11
(UTC+00:00)

Tiros 1 despin weight - Pass Details

Date: 24 December 2019
Orbit: 594 x 642 km, 48.2° (Epoch: 25 January)

Event Time Altitude Azimuth Distance (km) Brightness Sun altitude
Rises 00:14:00 0° 257° (WSW) 2,927 - -62.7°
Reaches altitude 10° 00:16:21 10° 259° (W) 2,014 - -62.4°
Maximum altitude 00:20:59 76° 344° (NNW) 649 - -61.8°
Drops below altitude 10° 00:25:34 10° 72° (ENE) 1,989 - -61.2°
Sets 00:27:52 0° 74° (ENE) 2,887 - -60.9°
